| time (UTC) | temp F | wind direction | speed MPH | gust MPH | rain 1hr in | rain 24hr in | rain mn in | humidity % | barometer mb |
| 20260508014532 | 63 | 175 | 0.0 | 0.0 | 0.00 | 0.00 | 0.00 | 84 | 1009.1 |
| 20260508013032 | 63 | 42 | 0.0 | 0.0 | 0.00 | 0.00 | 0.00 | 83 | 1009.0 |
| 20260508011530 | 64 | 42 | 0.0 | 0.0 | 0.00 | 0.00 | 0.00 | 82 | 1009.2 |
| 20260508010023 | 64 | 42 | 0.0 | 0.0 | 0.00 | 0.00 | 0.00 | 79 | 1009.4 |
| 20260508004537 | 64 | 45 | 0.0 | 0.0 | 0.00 | 0.00 | 0.00 | 78 | 1009.8 |
| 20260508003021 | 64 | 45 | 0.0 | 0.0 | 0.00 | 0.00 | 0.00 | 78 | 1009.8 |
| 20260508001530 | 64 | 286 | 0.0 | 0.0 | 0.00 | 0.00 | 0.00 | 78 | 1010.1 |
| 20260508000014 | 64 | 292 | 0.0 | 0.0 | 0.00 | 0.00 | 0.00 | 78 | 1010.7 |
| 20260507234513 | 64 | 260 | 0.0 | 0.0 | 0.00 | 0.00 | 0.00 | 79 | 1010.7 |
| 20260507233012 | 64 | 272 | 0.0 | 0.0 | 0.00 | 0.00 | 0.00 | 79 | 1010.9 |
| 20260507231512 | 64 | 59 | 0.0 | 0.0 | 0.00 | 0.00 | 0.00 | 81 | 1011.0 |
| 20260507230012 | 64 | 59 | 0.0 | 0.0 | 0.00 | 0.00 | 0.00 | 81 | 1011.7 |
| 20260507224513 | 64 | 59 | 0.0 | 0.0 | 0.00 | 0.00 | 0.00 | 82 | 1011.5 |
| 20260507223010 | 65 | 59 | 0.0 | 0.0 | 0.00 | 0.00 | 0.00 | 82 | 1011.7 |
| 20260507221507 | 65 | 59 | 0.0 | 1.0 | 0.00 | 0.00 | 0.00 | 81 | 1011.3 |
| 20260507220004 | 65 | 42 | 0.0 | 1.0 | 0.00 | 0.00 | 0.00 | 80 | 1010.6 |
| 20260507214501 | 65 | 53 | 0.0 | 1.0 | 0.00 | 0.00 | 0.00 | 81 | 1010.6 |
| 20260507213000 | 65 | 44 | 0.0 | 9.0 | 0.00 | 0.00 | 0.00 | 80 | 1010.8 |
| 20260507211501 | 65 | 334 | 5.0 | 10.0 | 0.00 | 0.00 | 0.00 | 80 | 1010.6 |
| 20260507210001 | 65 | 57 | 0.0 | 13.0 | 0.00 | 0.00 | 0.00 | 80 | 1010.6 |
| 20260507204603 | 65 | 53 | 6.0 | 14.0 | 0.00 | 0.00 | 0.00 | 80 | 1010.4 |
| 20260507203132 | 65 | 80 | 5.0 | 10.0 | 0.00 | 0.00 | 0.00 | 80 | 1010.8 |
| 20260507201559 | 65 | 33 | 3.0 | 14.0 | 0.00 | 0.00 | 0.00 | 80 | 1010.9 |
| 20260507194618 | 65 | 40 | 3.0 | 16.0 | 0.00 | 0.00 | 0.00 | 78 | 1010.3 |
| 20260507193101 | 65 | 44 | 5.0 | 11.0 | 0.00 | 0.00 | 0.00 | 79 | 1010.4 |
| 20260507191557 | 65 | 82 | 9.0 | 17.0 | 0.00 | 0.00 | 0.00 | 79 | 1010.1 |
| 20260507184557 | 65 | 42 | 5.0 | 15.0 | 0.00 | 0.00 | 0.00 | 79 | 1010.2 |
| 20260507183057 | 65 | 66 | 8.0 | 15.0 | 0.00 | 0.00 | 0.00 | 79 | 1010.0 |
| 20260507181556 | 65 | 46 | 7.0 | 13.0 | 0.00 | 0.00 | 0.00 | 79 | 1009.7 |
| 20260507180056 | 65 | 58 | 5.0 | 13.0 | 0.00 | 0.00 | 0.00 | 79 | 1009.8 |
| 20260507174601 | 65 | 71 | 8.0 | 19.0 | 0.00 | 0.00 | 0.00 | 79 | 1009.8 |
| 20260507173128 | 65 | 41 | 7.0 | 20.0 | 0.00 | 0.00 | 0.00 | 78 | 1009.4 |
| 20260507171554 | 66 | 25 | 6.0 | 15.0 | 0.00 | 0.00 | 0.00 | 78 | 1009.7 |
| 20260507170052 | 65 | 71 | 7.0 | 19.0 | 0.00 | 0.00 | 0.00 | 78 | 1009.8 |
| 20260507164552 | 65 | 9 | 8.0 | 17.0 | 0.00 | 0.00 | 0.00 | 78 | 1010.3 |
| 20260507163051 | 65 | 76 | 8.0 | 20.0 | 0.00 | 0.00 | 0.00 | 78 | 1010.0 |
| 20260507161554 | 65 | 28 | 10.0 | 21.0 | 0.00 | 0.00 | 0.00 | 78 | 1009.6 |
| 20260507160058 | 66 | 65 | 7.0 | 19.0 | 0.00 | 0.00 | 0.00 | 77 | 1009.7 |
| 20260507154549 | 65 | 57 | 15.0 | 24.0 | 0.00 | 0.00 | 0.00 | 77 | 1009.8 |
| 20260507153053 | 66 | 44 | 10.0 | 18.0 | 0.00 | 0.00 | 0.00 | 77 | 1010.0 |
| 20260507151547 | 66 | 69 | 9.0 | 21.0 | 0.00 | 0.00 | 0.00 | 76 | 1010.1 |
| 20260507150048 | 66 | 26 | 8.0 | 21.0 | 0.00 | 0.00 | 0.00 | 76 | 1010.1 |
| 20260507144550 | 66 | 40 | 10.0 | 21.0 | 0.00 | 0.00 | 0.00 | 75 | 1010.0 |
| 20260507143057 | 66 | 72 | 11.0 | 19.0 | 0.00 | 0.00 | 0.00 | 75 | 1009.9 |
| 20260507141555 | 66 | 30 | 9.0 | 21.0 | 0.00 | 0.00 | 0.00 | 75 | 1010.5 |
| 20260507140044 | 66 | 33 | 14.0 | 25.0 | 0.00 | 0.00 | 0.00 | 75 | 1010.3 |
| 20260507134546 | 66 | 51 | 9.0 | 25.0 | 0.00 | 0.00 | 0.00 | 73 | 1010.7 |
| 20260507133109 | 67 | 44 | 15.0 | 28.0 | 0.00 | 0.00 | 0.00 | 73 | 1010.7 |
| 20260507131546 | 67 | 78 | 13.0 | 26.0 | 0.00 | 0.00 | 0.00 | 70 | 1010.5 |
| 20260507130053 | 67 | 51 | 14.0 | 28.0 | 0.00 | 0.00 | 0.00 | 71 | 1011.2 |
| 20260507124542 | 67 | 57 | 16.0 | 26.0 | 0.00 | 0.00 | 0.00 | 70 | 1011.3 |
| 20260507123041 | 68 | 34 | 16.0 | 31.0 | 0.00 | 0.00 | 0.00 | 69 | 1011.2 |
| 20260507121541 | 69 | 20 | 11.0 | 24.0 | 0.00 | 0.00 | 0.00 | 67 | 1011.4 |
| 20260507120038 | 69 | 35 | 15.0 | 32.0 | 0.00 | 0.00 | 0.00 | 67 | 1011.5 |
| 20260507114547 | 68 | 63 | 17.0 | 30.0 | 0.00 | 0.00 | 0.00 | 68 | 1011.6 |
| 20260507113037 | 68 | 29 | 15.0 | 26.0 | 0.00 | 0.00 | 0.00 | 67 | 1011.2 |
| 20260507111534 | 69 | 53 | 13.0 | 28.0 | 0.00 | 0.00 | 0.00 | 67 | 1011.9 |
| 20260507110040 | 69 | 46 | 14.0 | 32.0 | 0.00 | 0.00 | 0.00 | 66 | 1012.2 |
| 20260507104533 | 68 | 49 | 14.0 | 27.0 | 0.00 | 0.00 | 0.00 | 66 | 1012.3 |
| 20260507103038 | 69 | 37 | 13.0 | 32.0 | 0.00 | 0.00 | 0.00 | 65 | 1012.6 |
| 20260507101537 | 68 | 40 | 19.0 | 30.0 | 0.00 | 0.00 | 0.00 | 65 | 1012.4 |
| 20260507100035 | 68 | 36 | 15.0 | 25.0 | 0.00 | 0.00 | 0.00 | 64 | 1012.5 |
| 20260507094536 | 69 | 49 | 11.0 | 27.0 | 0.00 | 0.00 | 0.00 | 62 | 1012.6 |
| 20260507093028 | 68 | 28 | 15.0 | 31.0 | 0.00 | 0.00 | 0.00 | 62 | 1012.7 |
| 20260507091532 | 68 | 65 | 14.0 | 27.0 | 0.00 | 0.00 | 0.00 | 65 | 1012.8 |
| 20260507090025 | 67 | 66 | 15.0 | 24.0 | 0.00 | 0.00 | 0.00 | 67 | 1012.9 |
| 20260507084522 | 67 | 52 | 10.0 | 29.0 | 0.00 | 0.00 | 0.00 | 69 | 1012.7 |
| 20260507083022 | 66 | 64 | 16.0 | 29.0 | 0.00 | 0.00 | 0.00 | 71 | 1012.7 |
| 20260507081523 | 67 | 63 | 13.0 | 27.0 | 0.00 | 0.00 | 0.00 | 70 | 1012.3 |
| 20260507080020 | 66 | 57 | 16.0 | 27.0 | 0.00 | 0.00 | 0.00 | 70 | 1012.3 |
| 20260507074518 | 66 | 42 | 13.0 | 27.0 | 0.00 | 0.00 | 0.00 | 73 | 1012.6 |
| 20260507073017 | 66 | 46 | 13.0 | 26.0 | 0.00 | 0.00 | 0.00 | 73 | 1012.6 |
| 20260507071519 | 66 | 21 | 12.0 | 25.0 | 0.00 | 0.00 | 0.00 | 74 | 1012.8 |
| 20260507070026 | 66 | 74 | 10.0 | 21.0 | 0.00 | 0.00 | 0.00 | 74 | 1012.8 |
| 20260507064515 | 65 | 76 | 10.0 | 20.0 | 0.00 | 0.00 | 0.00 | 76 | 1013.0 |
| 20260507063011 | 64 | 60 | 13.0 | 21.0 | 0.00 | 0.00 | 0.00 | 81 | 1013.0 |
| 20260507061509 | 64 | 30 | 11.0 | 20.0 | 0.00 | 0.00 | 0.00 | 84 | 1012.9 |
| 20260507060012 | 63 | 28 | 10.0 | 23.0 | 0.00 | 0.00 | 0.00 | 85 | 1013.1 |
| 20260507054505 | 63 | 66 | 12.0 | 20.0 | 0.00 | 0.00 | 0.00 | 85 | 1013.2 |
| 20260507053005 | 63 | 66 | 8.0 | 19.0 | 0.00 | 0.00 | 0.00 | 85 | 1013.1 |
| 20260507051503 | 63 | 68 | 8.0 | 14.0 | 0.00 | 0.00 | 0.00 | 85 | 1013.1 |
| 20260507050006 | 63 | 32 | 8.0 | 16.0 | 0.00 | 0.00 | 0.00 | 85 | 1013.0 |
| 20260507044628 | 62 | 41 | 12.0 | 18.0 | 0.00 | 0.00 | 0.00 | 84 | 1012.8 |
| 20260507043059 | 62 | 53 | 9.0 | 20.0 | 0.00 | 0.00 | 0.00 | 85 | 1012.6 |
| 20260507041557 | 62 | 44 | 10.0 | 17.0 | 0.00 | 0.00 | 0.00 | 84 | 1012.8 |
| 20260507040058 | 63 | 59 | 7.0 | 15.0 | 0.00 | 0.00 | 0.00 | 81 | 1012.7 |
| 20260507034554 | 63 | 58 | 4.0 | 11.0 | 0.00 | 0.00 | 0.00 | 80 | 1013.0 |
| 20260507033102 | 63 | 40 | 4.0 | 9.0 | 0.00 | 0.00 | 0.00 | 80 | 1013.2 |
| 20260507031558 | 63 | 75 | 0.0 | 1.0 | 0.00 | 0.00 | 0.00 | 79 | 1013.2 |
| 20260507030106 | 64 | 49 | 0.0 | 1.0 | 0.00 | 0.00 | 0.00 | 74 | 1013.3 |
| 20260507024606 | 64 | 82 | 0.0 | 13.0 | 0.00 | 0.00 | 0.00 | 74 | 1013.1 |
| 20260507023048 | 63 | 40 | 0.0 | 1.0 | 0.00 | 0.00 | 0.00 | 74 | 1012.7 |
| 20260507021554 | 64 | 75 | 2.0 | 9.0 | 0.00 | 0.00 | 0.00 | 70 | 1012.6 |
| 20260507020055 | 64 | 80 | 0.0 | 0.0 | 0.00 | 0.00 | 0.00 | 66 | 1012.6 |